Terug naar catalogus

DELTA 1 DEB

ActiefSSO
NORAD 7019·DEBRIS·🇺🇸 United States

Gelanceerd Nov 6, 1973 vanaf Vandenberg Space Force Base

Loading…

Volgende Passages (komende 24 uur)

TLE

VersSource: Space-Track

Epoch: Sep 13, 2026, 21:16 UTC

1 07019U 73086K   26256.88647775 -.00000018  00000-0  19861-3 0  9992
2 07019 102.2126 272.1345 0066336  39.5733  29.6224 12.42818626395878

Volg DELTA 1 DEB in realtime met AllMySat

Download on the App Store